Weather Roundup
Issued by NWS

Home | Current Version | Previous Version | Graphics & Text | Print | Product List | Glossary Off
Versions: 1 2 3 4 5 6 7 8 9 10 11 12 13 14 15 16 17 18 19 20 21 22 23 24 25 26 27 28 29 30 31 32 33 34 35 36 37 38 39 40 41 42 43 44 45 46 47 48 49 50

540
NZUS93 KARX 231659
HRRWXR

CURRENT HOURLY OBSERVATIONS ACROSS
MUCH OF THE UPPER MISSISSIPPI VALLEY
NATIONAL WEATHER SERVICE LA CROSSE WI
1200 PM CDT FRI JUN 23 2017


...SOUTHEAST MINNESOTA...


CITY           SKY/WX    TMP DP  RH WIND       PRES   REMARKS
ROCHESTER      PTSUNNY   67  54  63 NW18G28   29.83R
ROCHESTER/MAYO PTSUNNY   65  50  58 NW26G33   29.80
WINONA         MOSUNNY   70  54  56 NW14G22   29.77R
AUSTIN         MOSUNNY   66  52  59 NW18G25   29.83S
ALBERT LEA     PTSUNNY   66  52  59 NW12G17   29.85R
DODGE CENTER   MOSUNNY   66  52  59 NW18G28   29.83R
PRESTON        MOSUNNY   65  53  63 NW18      29.81S
OWATONNA       PTSUNNY   66  55  68 W18       29.83S
FARIBAULT      CLOUDY    66  55  68 W15G22    29.83R
$$

...ELSEWHERE IN MINNESOTA...


CITY           SKY/WX    TMP DP  RH WIND       PRES   REMARKS
MINNEAPOLIS    PTSUNNY   69  53  56 NW17G24   29.80R
INTNL FALLS    PTSUNNY   67  50  54 NW14G25   29.70R
DULUTH         PTSUNNY   64  50  60 NW10G22   29.70R
RED WING       PTSUNNY   70  50  49 NW13G21   29.78R
REDWOOD FALLS  CLOUDY    64  53  67 NW13G26   29.89R
MANKATO        CLOUDY    66  55  67 NW18      29.86R
WORTHINGTON    LGT RAIN  61  52  72 NW23G29   29.98R
FAIRMONT       CLOUDY    65  54  67 NW17      29.90R
$$

...SOUTHWEST WISCONSIN...


CITY           SKY/WX    TMP DP  RH WIND       PRES   REMARKS
LA CROSSE      SUNNY     77  54  44 NW12      29.74R
PRAIRIE DU CHI SUNNY     77  56  48 W14G20    29.75R
BOSCOBEL       SUNNY     79  57  46 W14       29.73F
LONE ROCK      NOT AVBL
PLATTEVILLE    SUNNY     76  60  57 W17       29.76F
FORT MC COY    SUNNY     73  53  50 W13G18    29.74R
MAUSTON-NEW LI SUNNY     75  57  53 W15G22    29.71S
VIROQUA        FAIR      72  58  62 W13       29.76R
WIS DELLS      SUNNY     74  58  55 W10G16    29.72S
$$

...ELSEWHERE IN WISCONSIN...


CITY           SKY/WX    TMP DP  RH WIND       PRES   REMARKS
MILWAUKEE      PTSUNNY   80  45  28 NW17G24   29.68F
MADISON        MOSUNNY   75  59  57 VRB5      29.71F
GREEN BAY      MOSUNNY   77  53  43 W8G18     29.65F
EAU CLAIRE     NOT AVBL
BLACK RVR FLS  FAIR      74  48  40 NW12G23   29.73S
MEDFORD        MOSUNNY   66  52  59 W14G21    29.71R
WAUSAU         SUNNY     72  50  45 W12G26    29.68R
WIS RAPIDS     SUNNY     76  55  48 W13G18    29.71S
MARSHFIELD     SUNNY     70  52  52 W14       29.71R
RICE LAKE      CLOUDY    65  50  58 W13G20    29.77R
$$

...NORTHEAST IOWA...


CITY           SKY/WX    TMP DP  RH WIND       PRES   REMARKS
WATERLOO       SUNNY     73  52  47 NW20G30   29.81R
DUBUQUE        SUNNY     77  56  48 W16       29.78S
DECORAH        SUNNY     70  52  52 NW10G26   29.78S
MASON CITY     CLOUDY    67  52  58 NW20G30   29.89R
CHARLES CITY   MOSUNNY   70  54  56 NW20G28   29.84R
OELWEIN        SUNNY     72  57  60 W18G24    29.81S
$$

...ELSEWHERE IN IOWA...


CITY           SKY/WX    TMP DP  RH WIND       PRES   REMARKS
DES MOINES     PTSUNNY   77  51  40 W22       29.87S
IOWA CITY      SUNNY     80  57  45 W12       29.81R
FORT DODGE     PTSUNNY   66  52  59 NW14      29.92S
MARSHALLTOWN   SUNNY     73  55  53 NW18      29.85R
CEDAR RAPIDS   MOSUNNY   77  62  59 W13       29.80R
$$

...NORTHERN ILLINOIS...


CITY           SKY/WX    TMP DP  RH WIND       PRES   REMARKS
CHICAGO-OHARE  CLOUDY    77  59  53 NW13G20   29.70R
CHICAGO-MIDWAY PTSUNNY   77  57  50 N14       29.70R
MOLINE         SUNNY     79  59  50 N9        29.77R
ROCKFORD       CLOUDY    78  56  46 N7        29.74S
PEORIA         SUNNY     79  61  53 NE13      29.76R
$$

NOTE: "FAIR" INDICATES FEW OR NO CLOUDS BELOW 12,000 FEET WITH NO
SIGNIFICANT WEATHER AND/OR OBSTRUCTIONS TO VISIBILITY. WIND
SPEEDS ARE IN MILES-PER-HOUR.




USA.gov is the U.S. government's official web portal to all federal, state and local government web resources and services.